TimeMDT,TemperatureF,Dew PointF,Humidity,Sea Level PressureIn,VisibilityMPH,Wind Direction,Wind SpeedMPH,Gust SpeedMPH,PrecipitationIn,Events,Conditions,WindDirDegrees,DateUTC
12:53 AM,36.0,21.9,57,30.30,10.0,WSW,12.7,-,N/A,,Clear,240,2013-03-10 07:53:00
3:53 AM,34.0,21.9,61,30.31,10.0,WSW,10.4,-,N/A,,Clear,240,2013-03-10 09:53:00
4:53 AM,32.0,21.9,66,30.32,10.0,WSW,9.2,-,N/A,,Clear,250,2013-03-10 10:53:00
6:53 AM,33.1,21.0,61,30.35,10.0,WSW,10.4,-,N/A,,Clear,240,2013-03-10 12:53:00
7:53 AM,30.0,21.0,69,30.38,10.0,WSW,8.1,-,N/A,,Clear,250,2013-03-10 13:53:00
8:53 AM,35.1,21.9,59,30.38,10.0,Calm,Calm,-,N/A,,Clear,0,2013-03-10 14:53:00
9:53 AM,39.9,21.0,47,30.38,10.0,West,13.8,-,N/A,,Clear,260,2013-03-10 15:53:00
10:53 AM,43.0,17.1,35,30.38,10.0,West,11.5,23.0,N/A,,Clear,260,2013-03-10 16:53:00
11:53 AM,46.0,18.0,33,30.37,10.0,West,17.3,25.3,N/A,,Clear,260,2013-03-10 17:53:00
12:53 PM,46.9,18.0,32,30.35,10.0,West,13.8,26.5,N/A,,Clear,270,2013-03-10 18:53:00
1:53 PM,50.0,17.1,27,30.32,10.0,West,13.8,23.0,N/A,,Clear,270,2013-03-10 19:53:00
2:53 PM,50.0,16.0,26,30.29,10.0,West,13.8,23.0,0.00,,Clear,270,2013-03-10 20:53:00
3:53 PM,52.0,15.1,23,30.27,10.0,West,15.0,25.3,N/A,,Clear,260,2013-03-10 21:53:00
4:53 PM,51.1,15.1,24,30.27,10.0,West,17.3,24.2,N/A,,Clear,260,2013-03-10 22:53:00
5:53 PM,51.1,12.0,21,30.25,10.0,West,15.0,20.7,N/A,,Clear,270,2013-03-10 23:53:00
6:53 PM,48.0,10.0,22,30.25,10.0,West,10.4,23.0,N/A,,Clear,280,2013-03-11 00:53:00
7:53 PM,42.1,12.0,29,30.28,10.0,WSW,8.1,-,N/A,,Clear,250,2013-03-11 01:53:00
9:53 PM,41.0,18.0,40,30.26,10.0,SSW,6.9,-,N/A,,Scattered Clouds,200,2013-03-11 03:53:00
10:53 PM,39.0,19.0,45,30.26,10.0,SW,11.5,-,N/A,,Clear,220,2013-03-11 04:53:00
11:53 PM,41.0,18.0,40,30.23,10.0,WSW,12.7,-,N/A,,Partly Cloudy,240,2013-03-11 05:53:00
12:53 AM,39.0,19.9,46,30.23,10.0,WSW,12.7,-,N/A,,Clear,240,2013-03-11 06:53:00